[[{"header":{"parameterUnit":"m.s-1","parameterCategory":1,"la1":30.2991,"la2":30.254,"lo1":-89.0895,"lo2":-89.0444,"dy":0.0017,"dx":0.0017,"nx":28,"ny":28,"refTime":"2025-01-10T03:00:00:Z","depth":0,"parameterNumber":2,"parameterNumberName":"U-component_of_WINDS"},"data":[0,0,0,0,0,0,0,0,0,0,0,0,0,0,0,0,0,0,0,0,0,0,0,0,0,0,0,0,0,0,0,0,0,0,0,0,0,0,0,0,0,0,0,0,0,0,0,0,0,0,0,0,0,0,0,0,0,0,5.7625,5.7625,0,5.7668,5.7669,5.7669,5.7581,5.7578,5.7575,5.7572,5.7615,5.7618,5.7622,0,0,0,0,0,0,0,0,0,0,0,0,0,5.7465,5.7468,5.7625,5.7625,5.7626,5.7668,5.7669,5.7669,5.7581,5.7578,5.7574,5.7571,5.7614,5.7618,5.7623,0,0,0,0,0,0,0,0,0,0,0,0,0,5.7524,5.7469,5.7625,5.7587,5.7584,5.7668,5.7669,5.7669,5.7582,5.7578,5.7573,5.7569,5.7612,5.7618,5.7623,5.7745,0,0,5.7641,5.7643,0,0,0,0,0,0,0,0,5.752,5.753,5.7592,5.759,5.7587,5.7615,5.7628,5.7695,5.7583,5.7583,5.7572,5.7567,5.7618,5.7623,5.7641,5.7747,5.7749,5.7641,5.7645,5.7647,5.7649,0,0,0,0,0,0,0,5.7516,5.7527,5.7642,5.7593,5.759,5.7568,5.7571,5.764,5.7624,5.7583,5.7576,5.7583,5.7616,5.7635,5.7641,5.7749,5.7641,5.7646,5.765,5.7652,5.7958,5.7963,0,0,0,0,0,0,5.7517,5.7524,5.764,5.7643,5.7542,5.7574,5.7578,5.761,5.7623,5.7621,5.7586,5.7578,5.7628,5.7634,5.7642,5.7786,5.7647,5.7652,5.7656,5.7954,5.7959,5.7964,0,0,0,0,0,0,5.7514,5.7528,5.7639,5.7582,5.7594,5.7581,5.7618,5.7613,5.7633,5.7626,5.7623,5.7609,5.7625,5.7634,5.772,5.7786,5.7655,5.766,5.7948,5.7955,5.7962,5.8074,0,0,0,0,0,0,5.751,5.7528,5.7574,5.7584,5.7598,5.7717,5.7622,5.7617,5.7643,5.7633,5.7647,5.7645,5.7622,5.7712,5.7726,5.7791,5.7665,5.7942,5.7951,5.796,5.8064,5.8084,5.8101,0,0,0,0,0,5.7505,5.7603,5.7577,5.7591,5.7655,5.7721,5.7729,5.7701,5.7649,5.7695,5.7691,5.7644,5.7777,5.7722,5.7737,5.7805,5.7938,5.7949,5.7959,5.8056,5.808,5.81,0,0,0,0,0,0,5.76,5.7604,5.7575,5.7679,5.7701,5.7706,5.7763,5.7727,5.7763,5.7752,5.7716,5.7719,5.7813,5.7817,5.7756,5.7924,5.7848,5.7862,5.7917,5.794,5.7958,5.7954,5.7669,0,0,0,0,0,5.7634,5.7687,5.7687,5.7779,5.7792,5.7776,5.7803,5.7781,5.7801,5.7809,5.7811,5.7832,5.7878,5.7909,5.7951,5.8065,5.8067,5.8119,5.8137,5.8152,5.8165,5.8226,5.8249,5.7999,5.7999,5.7999,0,0,5.7703,5.7712,5.7747,5.7799,5.7813,5.7868,5.7784,5.7846,5.7887,5.7818,5.79,5.7903,5.7923,5.8024,5.8068,5.8031,5.8234,5.8166,5.8178,5.8182,5.8239,5.8263,5.8284,5.8007,5.8005,5.8004,0,0,5.7858,5.787,5.7948,5.7964,5.7987,5.7976,5.7995,5.8006,5.8006,5.8088,5.8037,5.8085,5.8166,5.8183,5.8202,5.8366,5.8325,5.8381,5.8476,5.8536,5.8555,5.8573,5.8631,5.8653,5.8393,5.8394,5.8394,0,5.7941,5.8023,5.7993,5.806,5.8084,5.8026,5.8105,5.8122,5.8157,5.8175,5.8132,5.8233,5.8243,5.8347,5.8387,5.8405,5.8425,5.8379,5.8555,5.8572,5.8588,5.8643,5.8665,5.84,5.84,5.8399,5.8398,0,5.8124,5.8183,5.8243,5.828,5.8311,5.8384,5.8365,5.84,5.8375,5.8369,5.8454,5.8464,5.8508,5.8531,5.8506,5.8632,5.8608,5.8561,5.8485,5.8619,5.867,5.8691,5.841,5.8408,5.8406,5.8404,0,0,5.8339,5.8359,5.8382,5.8399,5.842,5.8464,5.8535,5.8578,5.8609,5.8636,5.8694,5.8764,5.8722,5.8744,5.8721,5.8774,5.8903,5.872,5.872,5.8754,5.9043,5.9078,5.9103,5.8877,5.888,5.8884,5.9041,0,5.8492,5.8614,5.859,5.8709,5.8762,5.8709,5.877,5.879,5.8786,5.8831,5.8827,5.8877,5.8817,5.883,5.888,5.8877,5.8961,5.8865,5.893,5.8932,5.8926,5.913,5.9166,5.9314,5.9061,5.9064,5.9067,0,5.8687,5.8723,5.8847,5.8861,5.8883,5.8939,5.8977,5.9021,5.9042,5.9036,5.9062,5.903,5.91,5.9024,5.9119,5.9055,5.908,5.9083,5.9088,5.9092,5.9007,5.9139,5.9361,5.9383,5.9098,5.9096,5.9093,0,5.8832,5.891,5.8995,5.9011,5.9029,5.907,5.9079,5.9097,5.9125,5.9159,5.9177,5.9218,5.9241,5.9274,5.9254,5.92,5.9353,5.9275,5.935,5.935,5.9383,5.9381,5.9612,5.9401,5.94,5.94,5.94,0,5.9005,5.9084,5.906,5.9113,5.9199,5.9171,5.9257,5.926,5.9277,5.9328,5.9284,5.9333,5.9304,5.9351,5.9336,5.9418,5.9428,5.9425,5.942,5.9429,5.9429,5.9444,5.9433,5.9406,5.9405,5.9403,5.9402,0,5.918,5.9168,5.9257,5.9268,5.9273,5.9336,5.9345,5.9394,5.9388,5.9454,5.9468,5.9458,5.9511,5.9495,5.9552,5.9542,5.9646,5.9627,5.9639,5.9634,5.971,5.9703,5.9957,5.9989,5.9758,5.976,5.9762,0,5.9292,5.9351,5.9369,5.9401,5.9414,5.9466,5.9495,5.947,5.9502,5.9532,5.9578,5.9627,5.9666,5.9753,5.9751,5.9795,5.9777,5.9864,5.9783,5.9791,5.9778,5.9775,5.9781,5.9879,5.9882,5.9884,5.9886,0,5.9491,5.9482,5.9526,5.9569,5.9606,5.9638,5.9666,5.9694,5.9671,5.971,5.9764,5.9794,5.9854,5.9904,5.9944,5.9953,5.9916,5.9911,5.9931,5.994,5.9944,5.9943,5.9682,5.9905,5.9903,5.9902,5.9901,5.99,5.9637,5.9688,5.9709,5.976,5.9779,5.9806,5.9853,5.9854,5.9899,5.9946,5.9928,5.9991,6.0012,6.0062,6.0077,6.0125,6.0092,6.012,6.0127,6.0135,6.0144,5.9937,6.0133,6.0132,6.0131,6.0131,6.0131,0,5.9834,5.9845,5.9893,5.9934,5.9974,5.9938,5.9967,6.0003,6.0059,6.0082,6.0121,6.0185,6.0233,6.0236,6.0281,6.032,6.0304,6.0332,6.0329,6.0332,6.0171,6.015,6.0344,6.0344,6.0344,6.0344,6.0344,6.0344,5.9941,6.0025,6.0019,6.0112,6.0122,6.0185,6.0205,6.023,6.0248,6.0321,6.0362,6.0364,6.0378,6.0425,6.0468,6.0467,6.0486,6.0521,6.0514,6.0364,6.0343,6.0323,6.0302,6.0525,6.0526,6.067,6.0671,6.0672]},{"header":{"parameterUnit":"m.s-1","parameterCategory":1,"la1":30.2991,"la2":30.254,"lo1":-89.0895,"lo2":-89.0444,"dy":0.0017,"dx":0.0017,"nx":28,"ny":28,"refTime":"2025-01-10T03:00:00:Z","depth":0,"parameterNumber":3,"parameterNumberName":"V-component_of_WINDS"},"data":[0,0,0,0,0,0,0,0,0,0,0,0,0,0,0,0,0,0,0,0,0,0,0,0,0,0,0,0,0,0,0,0,0,0,0,0,0,0,0,0,0,0,0,0,0,0,0,0,0,0,0,0,0,0,0,0,0,0,-4.9954,-4.9955,0,-5.012,-5.0121,-5.0123,-5.0116,-5.0113,-5.0111,-5.0109,-5.0278,-5.0285,-5.0292,0,0,0,0,0,0,0,0,0,0,0,0,0,-4.963,-4.9636,-4.9953,-4.9955,-4.9958,-5.0119,-5.0121,-5.0124,-5.0116,-5.0113,-5.011,-5.0108,-5.0276,-5.0284,-5.0292,0,0,0,0,0,0,0,0,0,0,0,0,0,-4.9781,-4.9638,-4.9953,-4.9973,-4.9977,-5.0119,-5.0122,-5.0124,-5.0117,-5.0113,-5.0109,-5.0106,-5.0274,-5.0283,-5.0293,-5.0426,0,0,-5.0324,-5.0329,0,0,0,0,0,0,0,0,-4.9772,-4.9793,-4.9968,-4.9972,-4.9976,-5.0093,-5.007,-5.0226,-5.0117,-5.0063,-5.0109,-5.0104,-5.022,-5.0234,-5.0273,-5.0434,-5.0442,-5.0325,-5.0331,-5.0335,-5.0338,0,0,0,0,0,0,0,-4.9762,-4.9786,-5.0019,-4.9971,-4.9976,-4.9974,-4.9992,-5.0099,-5.0159,-5.0068,-5.0068,-5.0087,-5.0221,-5.0263,-5.0277,-5.0444,-5.0325,-5.0334,-5.034,-5.0344,-5.0724,-5.0728,0,0,0,0,0,0,-4.9747,-4.9777,-5.0014,-5.0024,-4.9863,-4.9983,-5.0002,-5.0059,-5.0158,-5.017,-5.009,-5.0086,-5.0248,-5.0265,-5.0283,-5.0446,-5.0335,-5.0345,-5.0351,-5.072,-5.0725,-5.0729,0,0,0,0,0,0,-4.974,-4.9768,-5.0007,-4.9901,-4.9931,-4.9992,-5.0056,-5.0064,-5.0106,-5.0175,-5.0186,-5.0122,-5.0246,-5.0269,-5.0391,-5.0451,-5.0349,-5.0359,-5.0715,-5.0722,-5.0727,-5.0772,0,0,0,0,0,0,-4.9731,-4.9766,-4.9817,-4.9902,-4.9937,-5.0113,-5.006,-5.007,-5.0124,-5.012,-5.0208,-5.0219,-5.0245,-5.0376,-5.0401,-5.0464,-5.0366,-5.071,-5.0718,-5.0725,-5.0766,-5.0779,-5.0791,0,0,0,0,0,-4.9719,-4.9823,-4.9819,-4.9848,-5.0002,-5.0116,-5.0136,-5.0163,-5.0129,-5.0181,-5.0225,-5.0216,-5.0441,-5.0389,-5.0417,-5.0483,-5.0706,-5.0716,-5.0725,-5.076,-5.0776,-5.079,0,0,0,0,0,0,-4.9743,-4.9834,-4.9832,-4.9965,-5.0033,-5.0114,-5.0181,-5.018,-5.0259,-5.0252,-5.0283,-5.0303,-5.0426,-5.0467,-5.0407,-5.0618,-5.0569,-5.0584,-5.0586,-5.0603,-5.0615,-5.0603,-5.0375,0,0,0,0,0,-4.9764,-4.9849,-4.9924,-5.0035,-5.0069,-5.0119,-5.017,-5.0185,-5.0257,-5.0285,-5.0339,-5.0408,-5.0495,-5.0551,-5.0634,-5.0772,-5.0791,-5.0831,-5.0844,-5.0854,-5.0866,-5.0943,-5.0962,-5.0759,-5.0759,-5.0759,0,0,-4.9807,-4.9868,-4.992,-5.0041,-5.0095,-5.0183,-5.0143,-5.0238,-5.0303,-5.03,-5.0419,-5.046,-5.054,-5.0671,-5.0731,-5.0709,-5.0927,-5.0865,-5.0873,-5.088,-5.0955,-5.0974,-5.0991,-5.0766,-5.0764,-5.0763,0,0,-4.9932,-4.9986,-5.0085,-5.014,-5.0223,-5.0256,-5.028,-5.0362,-5.0389,-5.0509,-5.0509,-5.0587,-5.0735,-5.0793,-5.0841,-5.0989,-5.0984,-5.1015,-5.108,-5.1155,-5.1171,-5.1185,-5.1238,-5.1257,-5.1027,-5.1027,-5.1027,0,-4.9976,-5.0108,-5.0135,-5.0231,-5.0285,-5.0286,-5.0386,-5.0439,-5.0545,-5.0582,-5.0555,-5.0742,-5.0795,-5.094,-5.0976,-5.1015,-5.1044,-5.1005,-5.1166,-5.1181,-5.1195,-5.1246,-5.1266,-5.1031,-5.103,-5.103,-5.103,0,-5.0159,-5.0251,-5.032,-5.0423,-5.0484,-5.0582,-5.0624,-5.0683,-5.0694,-5.0729,-5.0852,-5.0917,-5.1014,-5.1049,-5.106,-5.1196,-5.118,-5.1159,-5.1111,-5.1217,-5.1265,-5.1285,-5.1035,-5.1034,-5.1033,-5.1032,0,0,-5.0303,-5.0419,-5.0445,-5.0492,-5.0583,-5.0655,-5.0753,-5.0848,-5.0898,-5.0972,-5.1055,-5.118,-5.1163,-5.1218,-5.1235,-5.13,-5.1414,-5.1272,-5.1275,-5.1297,-5.1569,-5.1584,-5.1606,-5.1411,-5.1415,-5.1418,-5.1563,0,-5.0437,-5.0611,-5.0639,-5.0791,-5.0877,-5.0879,-5.0965,-5.1031,-5.1067,-5.1145,-5.1185,-5.1274,-5.1243,-5.1277,-5.1342,-5.1386,-5.1469,-5.1376,-5.149,-5.1493,-5.147,-5.1632,-5.1648,-5.1781,-5.1582,-5.1585,-5.1587,0,-5.0618,-5.0696,-5.0857,-5.0938,-5.0975,-5.1052,-5.1141,-5.1216,-5.1291,-5.1313,-5.1375,-5.1384,-5.1487,-5.1434,-5.1576,-5.1512,-5.156,-5.1589,-5.1595,-5.1607,-5.1547,-5.1649,-5.1824,-5.1844,-5.1618,-5.1615,-5.1613,0,-5.0708,-5.0853,-5.0969,-5.1009,-5.1106,-5.116,-5.1203,-5.1274,-5.133,-5.1408,-5.1445,-5.1534,-5.1583,-5.1652,-5.1686,-5.1644,-5.1826,-5.1776,-5.1847,-5.1847,-5.1886,-5.1883,-5.2072,-5.1916,-5.1915,-5.1915,-5.1914,0,-5.0855,-5.0954,-5.1011,-5.1082,-5.1193,-5.1224,-5.1333,-5.1374,-5.1438,-5.1518,-5.1525,-5.16,-5.164,-5.1721,-5.1748,-5.1861,-5.1883,-5.1904,-5.191,-5.1904,-5.1901,-5.1936,-5.1928,-5.192,-5.1919,-5.1918,-5.1917,0,-5.0975,-5.1016,-5.1143,-5.1224,-5.1247,-5.1326,-5.1396,-5.1465,-5.1501,-5.1602,-5.1628,-5.1684,-5.178,-5.182,-5.1938,-5.1956,-5.2087,-5.2085,-5.2061,-5.2063,-5.2133,-5.2126,-5.2351,-5.2383,-5.2205,-5.2207,-5.2208,0,-5.1067,-5.1143,-5.1233,-5.1287,-5.1332,-5.1418,-5.1475,-5.1509,-5.1568,-5.166,-5.1718,-5.1814,-5.1892,-5.2045,-5.2097,-5.2187,-5.2188,-5.2261,-5.2202,-5.2193,-5.219,-5.2186,-5.2194,-5.2272,-5.2274,-5.2275,-5.2276,0,-5.1226,-5.1243,-5.1324,-5.1414,-5.1482,-5.1554,-5.1624,-5.1668,-5.1712,-5.1778,-5.1876,-5.1937,-5.2057,-5.2152,-5.2246,-5.229,-5.2292,-5.2294,-5.2316,-5.2311,-5.2294,-5.2305,-5.2092,-5.2289,-5.2288,-5.2287,-5.2286,-5.2286,-5.1335,-5.1403,-5.1477,-5.1568,-5.1625,-5.169,-5.176,-5.1805,-5.1887,-5.1988,-5.2002,-5.2107,-5.2181,-5.2307,-5.2355,-5.2438,-5.242,-5.2451,-5.2459,-5.2466,-5.2471,-5.228,-5.2455,-5.2455,-5.2454,-5.2454,-5.2454,0,-5.1495,-5.1543,-5.1626,-5.1725,-5.1797,-5.1791,-5.1869,-5.1929,-5.2022,-5.209,-5.2167,-5.228,-5.2373,-5.2432,-5.2526,-5.2581,-5.2584,-5.2604,-5.2601,-5.2612,-5.2481,-5.2454,-5.2601,-5.2601,-5.26,-5.26,-5.26,-5.26,-5.1587,-5.1702,-5.1728,-5.1872,-5.1919,-5.2022,-5.2067,-5.2128,-5.2183,-5.2309,-5.2386,-5.2424,-5.2489,-5.2588,-5.2673,-5.2688,-5.2722,-5.2744,-5.2758,-5.2636,-5.2621,-5.2606,-5.258,-5.2751,-5.2751,-5.2882,-5.2883,-5.2884]}]]